Regional Weather Roundup
Issued by NWS

Home | Current Version | Previous Version | Text Only | Print | Product List | Glossary Off
Versions: 1 2 3 4 5 6 7 8 9 10 11 12 13 14 15 16 17 18 19 20 21 22 23 24 25 26 27 28 29 30 31 32 33 34 35 36 37 38 39 40 41 42 43 44 45 46 47 48 49 50

257
ASUS43 KMKX 240411
RWRWI

WISCONSIN REGIONAL WEATHER ROUNDUP
NATIONAL WEATHER SERVICE MILWAUKEE/SULLIVAN WI
1000 PM CST THU FEB 23 2017

NOTE: "FAIR" INDICATES FEW OR NO CLOUDS BELOW 12,000 FEET WITH NO
SIGNIFICANT WEATHER AND/OR OBSTRUCTIONS TO VISIBILITY.

WIZ001-002-006>008-014>016-023>028-240500-
NORTHWEST WISCONSIN

CITY           SKY/WX    TMP DP  RH WIND       PRES   REMARKS
SUPERIOR ARPT  CLEAR     26  17  68 NE9       30.00R WCI  17
ASHLAND        CLEAR     27  20  75 N9        29.95F WCI  18
HAYWARD        CLEAR     27  21  78 N6        29.95R WCI  20
SIREN          CLOUDY    27  21  77 NE7       29.95R WCI  20
CUMBERLAND     CLOUDY    28  21  74 N14G21    29.90F WCI  17
RICE LAKE      CLOUDY    29  24  80 N12       29.93R WCI  20
CHETEK         CLOUDY    30  25  79 N10       29.91R WCI  21
LADYSMITH      PTCLDY    31  25  80 N12       29.91S WCI  21
EAU CLAIRE     CLOUDY    33  27  78 NE10      29.87R WCI  25
MENOMONIE      CLOUDY    33  26  76 N10       29.88S WCI  25
NEW RICHMOND   CLOUDY    29  23  76 NE12G17   29.91R WCI  20
OSCEOLA        CLOUDY    30  23  77 N10G16    29.94F WCI  21
$$

WIZ003>005-009-010-017-018-240500-
NORTH CENTRAL WISCONSIN

CITY           SKY/WX    TMP DP  RH WIND       PRES   REMARKS
MANITOWISH WTR MOCLDY    25  25 100 CALM      29.90F
ARBOR VITAE    CLOUDY    29  26  86 NE7         N/A  WCI  22
WOODRUFF       CLOUDY    29  26  86 NE7         N/A  WCI  22
RHINELANDER    CLOUDY    30  24  78 NE9       29.87F WCI  22
EAGLE RIVER    CLOUDY    27  22  80 NE7       29.89F WCI  19
LAND O LAKES   CLOUDY    27  24  89 E3        29.91F
PHILLIPS       CLOUDY    28  24  85 NE9       29.89R WCI  19
TOMAHAWK       CLOUDY    29  23  78 NE7       29.89F WCI  22
MEDFORD        CLOUDY    31  25  78 NE12G20   29.84F WCI  21
MERRILL        NOT AVBL
$$

WIZ029-030-035-036-043>047-240500-
CENTRAL WISCONSIN

CITY           SKY/WX    TMP DP  RH WIND       PRES   REMARKS
WAUSAU         CLOUDY    34  26  72 E10       29.84F WCI  26
MOSINEE        FLURRIES  36  27  69 NE12      29.86F WCI  27
MARSHFIELD     FLURRIES  34  27  75 NE9       29.83F WCI  27
STEVENS POINT  CLOUDY    34  25  69 E12G20    29.86F WCI  25
WAUPACA        CLOUDY    37  29  72 NE9       29.89S WCI  30
WAUTOMA        LGT RAIN  35  29  78 E17       29.84F WCI  25
WISC RAPIDS    CLOUDY    38  28  67 E15G23    29.84F WCI  29
CAMP DOUGLAS   CLOUDY    38  29  68 E13G18    29.81F WCI  31
$$

WIZ011>013-019>022-031-037>040-048>050-240500-
NORTHEAST WISCONSIN

CITY           SKY/WX    TMP DP  RH WIND       PRES   REMARKS
ANTIGO         CLOUDY    32  27  83 NE12      29.87F WCI  23
SHAWANO        CLOUDY    35  28  74 NE6       29.92S WCI  30
OCONTO         CLOUDY    34  25  69 NE8       29.92S WCI  27
STURGEON BAY   CLOUDY    34  25  69 NE13      29.93S WCI  25
GREEN BAY      CLOUDY    35  28  75 NE13      29.92R WCI  26
MANITOWOC      LGT RAIN  36  30  79 NE8       29.90R WCI  30
APPLETON       CLOUDY    36  25  64 NE10      29.88R WCI  28
CLINTONVILLE   CLOUDY    34  27  75 E10       29.91S WCI  26
OSHKOSH        LGT SNOW  33  28  81 NE12      29.88R WCI  24
$$

WIZ032>034-041-042-053>061-240500-
SOUTHWEST WISCONSIN

CITY           SKY/WX    TMP DP  RH WIND       PRES   REMARKS
LA CROSSE      LGT RAIN  40  29  64 NE13G18   29.80R WCI  32
SPARTA         CLOUDY    40  28  61 NE13      29.84R WCI  32
VIROQUA        CLOUDY    34  33  93 NE17G23   29.77F WCI  24
BOSCOBEL       LGT SNOW  35  32  88 NE8G21    29.77F FOG     WCI  29
PRAIRIE DU CHI MIX PCPN  33  32  96 NE9       29.73F WCI  26
PLATTEVILLE    CLOUDY    36  35  99 NE18      29.71R WCI  25
$$

WIZ056-057-062-063-064-067-068-240500-
SOUTH CENTRAL WISCONSIN

CITY           SKY/WX    TMP DP  RH WIND       PRES   REMARKS
REEDSBURG      LGT RAIN  33  33 100 NE13      29.78F WCI  24
BARABOO/DELLS  LGT SNOW  32  32  99 NE16      29.77F WCI  21
LONE ROCK      LGT SNOW  35  31  85 NE13G20   29.75F FOG     WCI  26
MINERAL POINT  LGT RAIN  34  34 100 NE20G28   29.70F WCI  22
MADISON        LGTSLEET  32  31  96 NE16G30   29.77F FOG     WCI  21
MIDDLETON      CLOUDY    34  34 100 NE20G26   29.76F WCI  23
WATERTOWN      MIX PCPN  33  33 100 NE12G18   29.78F WCI  24
MONROE         LGT SNOW  34  32  93 NE18G24   29.75R WCI  23
JANESVILLE     RAIN      36  36 100 NE9       29.77R WCI  29
$$

WIZ051-052-058>065-066-070>072-240500-
SOUTHEAST WISCONSIN

CITY           SKY/WX    TMP DP  RH WIND       PRES   REMARKS
MILWAUKEE      LGT RAIN  37  33  85 NE15G29   29.77F WCI  28
WAUKESHA       LGT RAIN  32  32 100 NE17G23   29.77F WCI  21
MILWAUKEE/TIMM RAIN      34  32  93 NE16G26   29.79F WCI  23
RACINE         LGT RAIN  37  34  89 NE18      29.76F WCI  27
KENOSHA        RAIN      37  34  89 NE18G28   29.73F FOG     WCI  27
FOND DU LAC    LGT SNOW  33  29  85 NE13      29.86F FOG     WCI  24
SHEBOYGAN      LGT SNOW  33  31  92 NE21      29.86F VSB 1   WCI  21
WEST BEND      LGT SNOW  32  32 100 NE10      29.81F WCI  24
JUNEAU         MIX PCPN  32  31  96 N18G24    29.81F WCI  20
$$

LSZ147-162-240500-
LAKE SUPERIOR

STATION/POSITION TIME  TEMP    WIND        PRES    WAVE
                       AIR SEA DIR/SP/G            HT/PER
                 (UTC) (F)     (DEG/KT/KT) (MB)    (FT/S)
DEVILS ISLAND    0400   30     360/ 21/ 23 1015.4F
PORT WING        0330   29      10/ 16/ 19 1015.6F
SAXON HARBOR     0340   32      10/ 13/ 15 1014.2F
$$

LMZ867-665-643>646-240500-
LAKE MICHIGAN

STATION/POSITION TIME  TEMP    WIND        PRES    WAVE
                       AIR SEA DIR/SP/G            HT/PER
                 (UTC) (F)     (DEG/KT/KT) (MB)    (FT/S)
CHAMBERS ISLAND  0340   33      40/ 10/ 13 1013.2S
NORTHPORT PIER   0340   33      30/  8/ 11 1013.9S
SISTER BAY       0335   33      30/  6/  9   N/A
KEWAUNEE LAKESHO 0348   36      40/ 16/ 20   N/A
SHEBOYGAN LAKESH 0400   33      20/ 26/ 28 1011.3S
PORT WASHINGTON  0330   35      30/ 12/ 20 1011.5R
MILWAUKEE LAKESH 0330   36      30/ 23/ 26   N/A
KENOSHA   LAKESH 0400   36      30/ 19/ 22 1007.1
$$

TC  - TEMPERATURE IN CELSIUS
VSB - VISIBILITY IN STATUTE MILES
WCI - WIND CHILL INDEX
HX  - HEAT INDEX





USA.gov is the U.S. government's official web portal to all federal, state and local government web resources and services.